Regional Weather Roundup
Issued by NWS

Home | Current Version | Previous Version | Text Only | Print | Product List | Glossary On
Versions: 1 2 3 4 5 6 7 8 9 10 11 12 13 14 15 16 17 18 19 20 21 22 23 24 25 26 27 28 29 30 31 32 33 34 35 36 37 38 39 40 41 42 43 44 45 46 47 48 49 50
994
ASUS43 KDMX 231906
RWRIA

WEATHER ROUNDUP FOR IOWA
NATIONAL WEATHER SERVICE DES MOINES IA
200 PM CDT MON OCT 23 2017

NOTE: "FAIR" INDICATES FEW OR NO CLOUDS BELOW 12,000 FEET WITH NO
SIGNIFICANT WEATHER AND/OR OBSTRUCTIONS TO VISIBILITY.

* - THESE STATIONS ARE NOT NWS STATIONS...THUS NOT UNDER NWS
QUALITY CONTROL.  THEY ALSO DO NOT REPORT WEATHER SUCH
AS PRECIPITATION OR FOG.

IAZ001>003-012>014-020>022-031>034-043>046-232000-
   NORTHWEST IOWA

CITY           SKY/WX    TMP DP  RH WIND       PRES   REMARKS
CHEROKEE *     CLOUDY    56  36  47 NW15G25   29.94S
DENISON *      MOSUNNY   61  36  39 NW25G38   29.94F
LE MARS *      CLOUDY    57  34  41 NW21G37   29.99R
ORANGE CITY *  CLOUDY    55  39  54 NW20G30   29.97R
SHELDON *      CLOUDY    54  34  47 NW17G33   29.94R
SIOUX CITY     MOSUNNY   60  36  40 NW32G44   29.97S
SPENCER        LGT RAIN  55  36  48 NW23G37   29.92R
STORM LAKE *   SUNNY     57  36  44 NW29G41   29.92S
$$

IAZ055>058-069>071-079>083-090>094-232000-
   SOUTHWEST IOWA

CITY           SKY/WX    TMP DP  RH WIND       PRES   REMARKS
ATLANTIC *     MOSUNNY   63  39  42 NW24G30   29.93F
AUDUBON *      SUNNY     63  34  34 NW23G33   29.92F
CLARINDA *     MOSUNNY   64  39  39 N23G37    29.99S
COUNCIL BLFS * MOSUNNY   63  36  36 NW28G43   29.97F
CRESTON *      MOSUNNY   61  39  44 NW29G39   29.93S
HARLAN  *      SUNNY     63  36  36 NW32G40   29.97F
LAMONI         CLOUDY    61  42  49 NW20G28   29.90F
RED OAK *      MOSUNNY   64  36  34 NW20G32   29.96F
SHENANDOAH *   MOSUNNY   64  36  34 NW22G36   29.98F
$$

IAZ047>049-059>061-072>074-084-232000-
   CENTRAL IOWA

CITY           SKY/WX    TMP DP  RH WIND       PRES   REMARKS
AMES           SUNNY     63  41  44 NW22G28   29.85F
ANKENY *       SUNNY     61  43  51 NW17G30   29.86F
BOONE *        MOSUNNY   61  37  41 NW22G30   29.85F
CHARITON *     CLOUDY    59  43  55 NW17G23   29.87S
DES MOINES     PTSUNNY   62  40  44 NW20G31   29.86F
GRINNELL*      LGT RAIN  54  46  74 NW9       29.84F
KNOXVILLE *    CLOUDY    59  43  55 NW15G22   29.84S
MARSHALLTOWN   CLOUDY    56  48  74 NW13      29.82F
NEWTON *       PTSUNNY   57  45  62 NW14G21   29.84F
PELLA *        CLOUDY    57  45  63 N6        29.85F
PERRY *          N/A     64  32  31 NW20G25   29.88F
$$

IAZ004>006-015-016-023>025-035-036-232000-
   NORTH CENTRAL IOWA

CITY           SKY/WX    TMP DP  RH WIND       PRES   REMARKS
ALGONA *       CLOUDY    59  37  44 NW17G30   29.87F
CLARION *      PTSUNNY   61  37  41 NW26G33   29.85F
ESTHERVILLE    CLOUDY    54  36  50 NW24G38   29.89R
FORT DODGE *   PTSUNNY   62  37  39 NW15G29   29.87F
MASON CITY     CLOUDY    60  38  43 NW25      29.84F
FOREST CITY *    N/A     59  36  41 NW23G29   29.84F
WEBSTER CITY * MOSUNNY   63  36  36 NW20G29   29.84F
IOWA FALLS *     N/A     62  42  48 NW12G21   29.84F
$$

IAZ007>011-017>019-026>030-037>042-050>054-066-232000-
   NORTHEAST IOWA

CITY           SKY/WX    TMP DP  RH WIND       PRES   REMARKS
CEDAR RAPIDS   CLOUDY    58  44  60 NW13G23   29.79F
CHARLES CITY * CLOUDY    57  43  58 W10       29.80F
CLINTON *      CLOUDY    57  47  69 W9        29.76F
DECORAH *      CLOUDY    57  41  54 NW10G21   29.75F
DUBUQUE        MOSUNNY   56  44  64 W13       29.75F
MONTICELLO *   MOSUNNY   59  43  55 NW13      29.77S
OELWEIN *      LGT RAIN  52  46  82 NW13G23   29.79F
WATERLOO       LGT RAIN  51  46  83 NW12      29.79F
$$

IAZ064-065-067-068-078-232000-
   EAST CENTRAL IOWA

CITY           SKY/WX    TMP DP  RH WIND       PRES   REMARKS
DAVENPORT      CLOUDY    57  46  66 W9        29.77F
IOWA CITY      CLOUDY    59  43  55 NW12      29.79F
MUSCATINE *    PTSUNNY   59  45  58 NW14      29.77F
QUAD CITIES    CLOUDY    59  48  67 W9        29.76S
$$

IAZ062-063-075>077-085>089-095>099-232000-
   SOUTHEAST IOWA

CITY           SKY/WX    TMP DP  RH WIND       PRES   REMARKS
BURLINGTON     PTSUNNY   62  45  53 NW13G18   29.77F
FAIRFIELD *    CLOUDY    59  43  55 NW15      29.81F
FORT MADISON * CLOUDY    63  46  55 W13       29.79S
KEOKUK *       MOSUNNY   61  45  55 W17G23    29.79R
OSKALOOSA *    LGT RAIN  55  46  70 NW8       29.85S
OTTUMWA        CLOUDY    56  45  66 NW8       29.84S
WASHINGTON *   CLOUDY    59  45  58 W14       29.81S
$$

ABBREVIATIONS USED IN REMARKS
   TC - TEMPERATURES IN CELSIUS
  WCI - WIND CHILL INDEX
   HX - HEAT INDEX
  VSB - VISIBILITY
$$





USA.gov is the U.S. government's official web portal to all federal, state and local government web resources and services.